Dewpoint
61 63 64 65 66 68 67 67 67 67 67 67 67 66 66 65 64 63 62 62 61 60 60 59 59 59 60 60 60 58 58 56 53 58 59 59 61 62 63 62 62 62 60
62 64 66 67 68 68 67 67 67 66 67 67 67 66 65 65 63 62 61 62 61 60 59 59 59 61 59 59 59 59 57 57 56 56 59 59 60 62 62 61 62 62 61
64 66 66 67 68 68 67 67 67 67 67 66 65 64 64 64 62 61 61 61 60 60 59 59 59 60 57 59 59 60 59 59 57 58 57 59 59 61 60 60 60 60 60
66 66 66 66 66 66 67 68 67 66 65 64 63 63 63 63 62 62 61 60 60 60 60 59 59 58 58 59 59 60 59 57 57 57 57 57 58 59 60 58 57 58 57
66 66 65 65 65 65 64 65 65 66 64 63 62 62 63 63 60 60 60 60 60 59 59 59 58 58 58 58 61 60 60 58 57 56 56 56 56 57 57 56 55 56 56
65 65 65 64 64 64 63 62 61 61 61 60 60 59 59 58 52 55 60 60 59 58 57 57 57 57 57 54 56 57 58 58 57 56 55 56 57 55 56 56 55 56 53
64 64 64 63 63 63 61 61 59 59 59 58 57 57 57 55 48 50 53 60 59 58 57 56 58 61 58 58 53 53 54 53 55 56 55 56 56 56 57 56 56 54 53
64 63 63 62 61 60 59 59 59 59 59 59 58 57 55 52 48 50 54 59 58 58 57 57 57 59 59 58 59 59 58 57 56 57 57 55 57 57 57 56 54 55 55
62 61 61 60 59 59 59 60 60 61 62 61 58 55 54 54 48 49 56 59 58 57 58 58 58 59 48 48 58 57 56 56 51 51 51 49 48 49 53 55 54 54 53
60 60 59 59 59 58 59 60 61 61 61 60 58 56 54 55 46 46 54 59 57 58 57 56 48 55 45 46 57 57 56 55 55 54 53 50 52 50 50 55 55 54 52
59 59 59 59 58 59 60 61 60 61 61 60 58 56 55 55 51 45 49 59 59 57 58 56 54 45 44 45 51 58 55 55 53 55 56 55 55 55 56 56 54 54 52
58 58 58 59 59 60 59 60 60 60 59 58 58 58 55 54 47 45 47 52 54 57 57 56 53 44 43 45 51 44 46 52 56 56 55 55 55 55 56 56 55 55 57
59 59 59 60 60 60 60 60 60 60 59 59 58 58 56 55 52 43 44 46 50 56 57 51 43 42 44 46 44 45 49 56 55 55 55 55 55 55 56 55 55 55 56
59 59 60 60 59 60 60 61 60 59 58 58 59 58 57 55 54 54 53 51 48 50 48 50 49 49 48 49 51 54 56 56 55 55 55 56 55 55 55 54 54 54 54
59 59 60 59 58 54 50 54 60 57 57 58 57 58 57 56 54 51 52 55 55 52 53 55 56 55 55 56 57 57 56 56 55 55 55 55 55 55 54 53 53 55 54
58 59 59 58 56 55 54 50 41 42 43 45 49 55 55 50 44 43 43 43 43 45 55 55 55 55 56 56 56 55 56 54 55 55 55 55 54 54 54 53 54 55 54
58 58 57 57 57 56 56 55 52 46 41 42 47 46 49 46 43 42 41 41 41 48 55 55 55 56 56 57 56 55 55 55 56 55 55 55 55 54 52 53 53 53 53
58 54 58 58 58 57 56 55 55 55 53 52 43 43 41 41 41 41 41 46 54 52 55 55 55 56 57 57 56 56 56 56 55 55 55 55 55 53 53 53 53 53 53
57 57 58 59 58 57 57 56 56 54 53 50 49 45 40 39 40 41 43 55 55 53 55 55 56 56 57 57 57 57 56 56 55 55 55 55 55 54 53 53 53 46 48
57 53 55 58 58 58 57 57 55 54 54 55 54 51 48 50 53 54 55 56 55 55 55 55 56 57 57 57 57 57 56 55 56 57 56 56 56 55 54 54 54 53 53
57 55 49 57 58 58 57 57 56 55 54 54 54 51 44 54 54 55 55 56 55 55 55 55 56 56 57 57 56 57 56 55 56 57 57 56 56 56 55 55 55 55 54
57 56 56 57 57 58 58 57 56 56 55 53 52 51 37 54 55 56 57 57 59 59 58 56 56 56 56 56 57 56 56 56 56 57 57 58 57 57 56 55 55 54 54
53 55 55 56 57 52 58 59 57 56 55 54 53 52 51 54 56 57 58 58 53 50 51 54 53 51 50 50 52 55 57 57 59 59 59 58 59 58 57 56 55 55 54
53 54 55 56 56 58 59 59 56 51 55 55 55 54 55 56 53 48 48 48 47 45 44 43 43 42 44 43 44 43 43 44 47 53 56 58 58 56 58 59 58 58 57
56 56 56 56 56 58 57 57 56 55 55 55 55 53 50 48 46 44 43 41 39 38 38 39 40 38 37 38 39 39 36 37 48 47 52 54 54 53 53 52 51 50 50
52 52 52 55 57 56 55 55 55 55 55 54 49 47 46 43 40 39 39 38 37 37 35 36 34 35 34 34 33 33 33 34 39 39 48 49 49 48 47 46 45 45 44
Lifted_Index
-1 -1 -3 -3 -3 -4 -4 -4 -5 -6 -6 -5 -4 -4 -4 -4 -4 -3 -3 -2 -1 -0 -0 -0 0 -0 -1 -1 -1 -0 -0 0 1 1 1 1 0 0 -0 -0 -0 -1 -2
-1 -2 -3 -4 -4 -5 -5 -5 -6 -6 -5 -5 -4 -4 -4 -4 -3 -3 -2 -1 -1 -0 -0 -0 -0 -0 -1 -1 -0 -0 -0 0 1 1 1 1 0 0 0 -0 -0 -1 -1
-3 -4 -4 -5 -5 -5 -6 -6 -6 -6 -5 -4 -4 -4 -4 -3 -2 -2 -1 -0 -0 -0 -0 -0 -0 -0 -0 -0 -0 -0 -0 0 1 1 1 1 1 0 0 0 0 -0 -1
-5 -5 -5 -5 -6 -6 -6 -7 -6 -5 -5 -4 -4 -4 -3 -2 -1 -0 0 0 -0 -0 -0 -0 -0 0 1 1 1 0 0 0 1 1 1 1 1 1 1 1 1 1 0
-6 -6 -6 -6 -6 -6 -6 -6 -6 -5 -5 -4 -3 -2 -1 -1 -0 0 1 0 -0 -0 -0 -0 -0 1 1 1 1 1 1 1 1 1 1 1 1 1 1 1 1 1 1
-6 -6 -6 -6 -6 -6 -5 -5 -4 -4 -4 -3 -1 -1 -0 -0 0 1 0 -0 -0 -0 -0 -0 0 1 1 1 1 1 1 1 1 1 1 1 1 1 1 1 2 2 2
-5 -5 -5 -5 -5 -4 -4 -3 -2 -2 -2 -1 -0 0 0 0 0 0 -0 -0 -0 -0 -0 0 1 1 1 1 1 1 0 0 0 0 1 1 2 1 1 2 2 2 2
-5 -5 -5 -4 -4 -3 -2 -1 -1 -1 -0 0 1 1 1 0 0 -0 -0 -0 -0 -0 0 1 1 1 1 1 1 0 0 0 0 0 1 1 2 2 2 2 2 2 2
-5 -4 -4 -3 -3 -2 -1 -1 -0 -0 0 1 1 1 1 0 0 -0 -0 -0 -0 -0 0 1 1 1 1 1 1 0 -0 0 0 1 1 1 2 1 2 2 3 3 3
-4 -4 -3 -3 -2 -1 -0 0 0 0 1 1 1 0 0 0 0 0 0 -0 -0 0 1 1 1 1 1 0 0 -0 -0 0 1 1 1 1 1 1 1 2 3 3 3
-3 -3 -2 -2 -1 -0 0 0 1 1 1 1 0 0 0 0 1 1 0 -0 0 1 1 1 2 1 0 0 -0 0 0 1 1 1 1 1 1 1 1 2 2 2 2
-3 -2 -2 -1 -0 0 0 0 1 1 0 0 0 1 1 1 1 1 0 0 0 1 1 2 2 1 1 0 -0 0 1 1 1 1 1 1 1 1 1 1 2 2 2
-2 -2 -1 -1 -0 0 0 0 0 0 0 0 1 1 2 1 1 1 1 0 1 1 2 2 1 1 1 0 0 1 1 1 1 1 1 1 1 1 1 1 1 2 2
-2 -2 -1 -1 -0 -0 0 0 0 0 0 0 1 1 2 2 2 1 1 1 1 1 2 2 1 1 1 0 1 1 2 2 2 1 1 1 1 2 1 1 1 2 2
-2 -1 -1 -1 -0 -0 0 0 0 0 0 0 1 1 2 2 2 2 2 2 2 2 2 2 1 1 1 1 1 2 2 2 2 2 2 2 2 2 1 1 1 2 2
-1 -1 -1 -0 -0 -0 0 0 -0 -0 -0 0 1 1 2 2 2 3 3 3 2 2 2 2 2 2 1 2 2 2 3 3 3 3 3 2 2 2 1 2 2 2 2
-1 -1 -0 -0 -0 0 0 0 -0 -0 0 0 0 1 1 2 2 3 3 3 2 2 2 2 2 2 2 2 2 3 3 3 3 3 3 3 2 2 2 2 2 2 3
-0 -0 -0 -0 -0 -0 0 0 0 0 0 0 -0 0 1 2 2 3 3 3 3 3 2 2 2 3 3 3 3 3 3 3 3 3 3 3 3 3 2 3 3 3 3
-0 -0 -0 -0 -0 -0 0 0 1 1 1 0 0 0 1 2 3 3 3 3 3 3 3 3 3 3 3 3 3 3 3 3 3 3 3 3 3 3 3 3 3 3 3
-0 -0 -0 -0 -0 -0 0 1 1 1 1 0 0 1 1 2 3 3 3 3 3 4 4 4 3 3 3 3 3 3 3 3 3 3 2 3 3 3 3 3 3 3 2
-1 -1 -1 -1 -1 -0 0 0 1 1 1 1 1 1 2 2 3 3 3 3 3 3 3 3 3 3 3 3 3 3 3 3 3 2 2 2 2 2 3 3 3 2 2
-1 -1 -1 -1 -1 -1 -0 -0 0 0 1 1 1 2 2 3 3 3 2 2 2 2 2 2 3 3 3 3 3 3 3 3 2 2 2 2 2 2 2 2 2 2 2
-1 -1 -1 -1 -1 -1 -1 -0 -0 0 1 1 2 2 2 2 2 2 2 1 1 1 1 1 2 2 2 2 2 2 2 2 1 1 1 1 1 1 1 1 1 1 1
-1 -1 -1 -1 -1 -1 -1 -1 -0 0 1 2 2 2 2 1 1 1 1 0 0 0 0 0 1 1 1 1 1 1 1 1 1 1 0 0 0 0 0 0 0 0 0
-1 -1 -1 -1 -1 -1 -1 -1 -1 0 1 1 1 1 1 0 0 0 0 -0 -0 -0 -0 0 0 0 0 0 0 1 1 1 0 0 0 0 -0 -0 -0 -0 -0 -0 -0
-1 -1 -1 -1 -1 -2 -1 -1 -1 -0 1 1 1 0 -0 -0 0 0 0 -0 -0 -0 -0 -0 -0 -0 0 0 0 0 0 0 0 0 0 -0 -0 -0 -0 -0 0 0 0